KAL907 EGKK-RKSI

Flight info

Callsign KAL907
Flight time N/A
Altitude 35000
Route ODVIK Y311 DVR UL9 KONAN UL607 FERDI DCT MATUG DCT GUBAX DCT BOREP DCT ENITA DCT PEPIK DCT ADUKU DCT DINRO/N0491F370 N743 UDROS UM859 KARDE UN644 ROLIN N644 LAGAS DCT DISKA M737 VERCA M747 SUBUT T916 LEYLA N161 GASBI/K0896F370 N161 TIROK/K0896F390 N161 SARIN/K0898S1190 A368 FKG B215 NUKTI W66 DKO W69 BIKUT/K0900S1250 W69 HUR B339 LADIX W34 VAPGU W100 ORAVA W201 UNSEK A326 DONVO G597 AGAVO/N0488F410 Y644 REBIT REBIT2H
Aircraft A388/J-SADE2E3FGHIJ3J4J5M1RWXY/LB1D1

Departure

Time 2026-05-04 20:12
Airport London Gatwick Airport (EGKK)

Arrival

Time N/A
Airport Incheon International Airport (RKSI)
Time Latitude Longitude Altitude Speed Heading
2026-05-04 19:33 51.16112 -0.18026 219 ft 0 kts 77°
2026-05-04 19:37 51.16112 -0.18027 219 ft 1 kts 77°
2026-05-04 19:38 51.16108 -0.18058 203 ft 5 kts 77°
2026-05-04 19:38 51.16097 -0.18088 211 ft 1 kts 107°
2026-05-04 19:38 51.16101 -0.18112 216 ft 3 kts 110°
2026-05-04 19:38 51.16108 -0.18147 214 ft 4 kts 129°
2026-05-04 19:39 51.16114 -0.18173 216 ft 1 kts 156°
2026-05-04 19:39 51.16116 -0.18178 215 ft 1 kts 163°
2026-05-04 19:39 51.16120 -0.18180 214 ft 0 kts 164°
2026-05-04 19:44 51.16116 -0.18179 215 ft 2 kts 165°
2026-05-04 19:44 51.16089 -0.18169 219 ft 6 kts 167°
2026-05-04 19:44 51.16037 -0.18150 216 ft 9 kts 167°
2026-05-04 19:44 51.15965 -0.18125 212 ft 12 kts 167°
2026-05-04 19:45 51.15879 -0.18095 217 ft 13 kts 168°
2026-05-04 19:45 51.15794 -0.18066 218 ft 12 kts 168°
2026-05-04 19:45 51.15755 -0.18053 216 ft 0 kts 167°
2026-05-04 19:45 51.15754 -0.18053 217 ft 0 kts 167°
2026-05-04 19:46 51.15752 -0.18052 217 ft 1 kts 167°
2026-05-04 19:46 51.15737 -0.18047 222 ft 4 kts 167°
2026-05-04 19:47 51.15701 -0.18053 220 ft 5 kts 192°
2026-05-04 19:47 51.15685 -0.18097 220 ft 5 kts 236°
2026-05-04 19:47 51.15669 -0.18191 217 ft 12 kts 255°
2026-05-04 19:47 51.15639 -0.18341 212 ft 15 kts 240°
2026-05-04 19:48 51.15554 -0.18339 218 ft 12 kts 169°
2026-05-04 19:48 51.15482 -0.18315 220 ft 9 kts 167°
2026-05-04 19:48 51.15421 -0.18292 218 ft 9 kts 167°
2026-05-04 19:48 51.15360 -0.18270 219 ft 9 kts 167°
2026-05-04 19:49 51.15304 -0.18250 219 ft 6 kts 167°
2026-05-04 19:49 51.15265 -0.18236 219 ft 4 kts 168°
2026-05-04 19:49 51.15236 -0.18229 220 ft 5 kts 171°
2026-05-04 19:49 51.15192 -0.18250 217 ft 7 kts 207°
2026-05-04 19:50 51.15187 -0.18299 222 ft 4 kts 255°
2026-05-04 19:50 51.15182 -0.18366 216 ft 9 kts 257°
2026-05-04 19:50 51.15167 -0.18473 218 ft 10 kts 257°
2026-05-04 19:50 51.15151 -0.18587 213 ft 11 kts 257°
2026-05-04 19:51 51.15134 -0.18711 211 ft 12 kts 257°
2026-05-04 19:51 51.15115 -0.18844 219 ft 13 kts 257°
2026-05-04 19:51 51.15096 -0.18982 222 ft 13 kts 257°
2026-05-04 19:51 51.15077 -0.19126 221 ft 13 kts 257°
2026-05-04 19:52 51.15057 -0.19273 219 ft 14 kts 258°
2026-05-04 19:52 51.15037 -0.19419 217 ft 13 kts 258°
2026-05-04 19:52 51.15018 -0.19562 218 ft 13 kts 258°
2026-05-04 19:52 51.14998 -0.19707 215 ft 13 kts 257°
2026-05-04 19:53 51.14977 -0.19849 219 ft 13 kts 257°
2026-05-04 19:53 51.14963 -0.19945 212 ft 13 kts 258°
2026-05-04 19:53 51.14943 -0.20092 219 ft 14 kts 257°
2026-05-04 19:53 51.14923 -0.20238 213 ft 14 kts 257°
2026-05-04 19:54 51.14902 -0.20385 220 ft 14 kts 257°
2026-05-04 19:54 51.14882 -0.20534 222 ft 14 kts 257°
2026-05-04 19:54 51.14862 -0.20682 211 ft 14 kts 257°
2026-05-04 19:54 51.14841 -0.20830 219 ft 14 kts 257°
2026-05-04 19:55 51.14821 -0.20975 217 ft 13 kts 258°
2026-05-04 19:55 51.14805 -0.21096 213 ft 9 kts 258°
2026-05-04 19:55 51.14797 -0.21140 219 ft 0 kts 253°
2026-05-04 19:57 51.14797 -0.21141 219 ft 0 kts 253°
2026-05-04 19:57 51.14793 -0.21156 217 ft 3 kts 251°
2026-05-04 19:57 51.14783 -0.21195 215 ft 5 kts 249°
2026-05-04 19:57 51.14775 -0.21245 211 ft 0 kts 255°
2026-05-04 19:59 51.14772 -0.21267 211 ft 5 kts 255°
2026-05-04 20:00 51.14763 -0.21327 214 ft 6 kts 257°
2026-05-04 20:00 51.14760 -0.21353 214 ft 0 kts 257°
2026-05-04 20:02 51.14758 -0.21367 213 ft 3 kts 257°
2026-05-04 20:02 51.14743 -0.21394 222 ft 0 kts 234°
2026-05-04 20:03 51.14742 -0.21394 222 ft 1 kts 234°
2026-05-04 20:03 51.14730 -0.21404 222 ft 2 kts 217°
2026-05-04 20:04 51.14724 -0.21402 220 ft 0 kts 204°
2026-05-04 20:04 51.14721 -0.21402 220 ft 2 kts 201°
2026-05-04 20:04 51.14692 -0.21396 219 ft 4 kts 171°
2026-05-04 20:05 51.14658 -0.21356 222 ft 4 kts 142°
2026-05-04 20:05 51.14658 -0.21355 222 ft 0 kts 142°
2026-05-04 20:05 51.14657 -0.21355 222 ft 1 kts 142°
2026-05-04 20:05 51.14641 -0.21341 219 ft 4 kts 150°
2026-05-04 20:06 51.14610 -0.21328 217 ft 0 kts 164°
2026-05-04 20:06 51.14609 -0.21328 217 ft 0 kts 164°
2026-05-04 20:10 51.14607 -0.21327 211 ft 2 kts 164°
2026-05-04 20:10 51.14574 -0.21308 214 ft 8 kts 159°
2026-05-04 20:10 51.14523 -0.21229 222 ft 12 kts 122°
2026-05-04 20:10 51.14526 -0.21128 220 ft 0 kts 77°
2026-05-04 20:11 51.14570 -0.20812 220 ft 74 kts 78°
2026-05-04 20:11 51.14745 -0.19561 220 ft 157 kts 77°
2026-05-04 20:11 51.15022 -0.17547 689 ft 196 kts 77°
2026-05-04 20:12 51.15317 -0.15254 1626 ft 232 kts 77°
2026-05-04 20:12 51.15690 -0.12455 2313 ft 277 kts 77°
2026-05-04 20:12 51.16092 -0.09594 3890 ft 283 kts 77°
2026-05-04 20:12 51.16461 -0.06320 4699 ft 325 kts 81°
2026-05-04 20:13 51.16677 -0.02540 4876 ft 348 kts 86°
2026-05-04 20:13 51.16754 0.01148 4903 ft 320 kts 88°
2026-05-04 20:13 51.16757 0.04592 4869 ft 302 kts 89°
2026-05-04 20:13 51.16725 0.07861 5006 ft 288 kts 90°
2026-05-04 20:14 51.16672 0.10973 5584 ft 274 kts 90°
2026-05-04 20:14 51.16630 0.13973 6408 ft 271 kts 90°
2026-05-04 20:14 51.16608 0.16793 7250 ft 273 kts 90°
2026-05-04 20:14 51.16594 0.19842 8161 ft 277 kts 90°
2026-05-04 20:15 51.16587 0.22935 9067 ft 280 kts 90°
2026-05-04 20:15 51.16587 0.26054 9950 ft 284 kts 90°
2026-05-04 20:15 51.16587 0.29259 10527 ft 298 kts 90°
2026-05-04 20:15 51.16587 0.32661 10955 ft 315 kts 90°
2026-05-04 20:16 51.16587 0.36246 11402 ft 330 kts 90°
2026-05-04 20:16 51.16587 0.39977 11850 ft 345 kts 90°
2026-05-04 20:16 51.16586 0.43879 12300 ft 358 kts 90°
2026-05-04 20:16 51.16586 0.47912 12739 ft 370 kts 90°
2026-05-04 20:17 51.16589 0.52059 13316 ft 377 kts 90°
2026-05-04 20:17 51.16589 0.56260 14014 ft 379 kts 90°
2026-05-04 20:17 51.16589 0.60488 14608 ft 383 kts 90°
2026-05-04 20:17 51.16588 0.64720 15133 ft 389 kts 90°
2026-05-04 20:18 51.16584 0.69053 15720 ft 392 kts 90°
2026-05-04 20:18 51.16581 0.73411 16277 ft 396 kts 90°
2026-05-04 20:18 51.16572 0.77816 16809 ft 400 kts 91°
2026-05-04 20:18 51.16561 0.82266 17363 ft 403 kts 91°
2026-05-04 20:19 51.16550 0.86753 17880 ft 406 kts 91°
2026-05-04 20:19 51.16531 0.91273 17900 ft 409 kts 91°
2026-05-04 20:19 51.16515 0.95808 18381 ft 411 kts 92°
2026-05-04 20:19 51.16496 1.00386 18795 ft 415 kts 91°
2026-05-04 20:20 51.16472 1.05002 19241 ft 418 kts 91°
2026-05-04 20:20 51.16451 1.09655 19678 ft 422 kts 91°
2026-05-04 20:20 51.16421 1.14342 20110 ft 425 kts 92°
2026-05-04 20:20 51.16392 1.19084 20544 ft 428 kts 92°
2026-05-04 20:21 51.16364 1.23850 20963 ft 432 kts 92°
2026-05-04 20:21 51.16326 1.28592 21375 ft 435 kts 92°
2026-05-04 20:21 51.16090 1.38291 22178 ft 440 kts 94°
2026-05-04 20:22 51.15897 1.43181 22563 ft 444 kts 95°
2026-05-04 20:22 51.15681 1.48121 22912 ft 447 kts 95°
2026-05-04 20:22 51.15452 1.53025 23291 ft 450 kts 95°
2026-05-04 20:22 51.15214 1.58020 23638 ft 454 kts 96°
2026-05-04 20:23 51.14974 1.63045 24000 ft 455 kts 96°
2026-05-04 20:23 51.14725 1.68083 24335 ft 457 kts 96°
2026-05-04 20:23 51.14478 1.73142 24610 ft 461 kts 96°
2026-05-04 20:23 51.14220 1.78232 24974 ft 461 kts 96°
2026-05-04 20:24 51.13955 1.83338 25279 ft 463 kts 96°
2026-05-04 20:24 51.13690 1.88480 25617 ft 465 kts 96°
2026-05-04 20:24 51.13416 1.93622 25965 ft 466 kts 96°
2026-05-04 20:24 51.13144 1.98775 26249 ft 468 kts 96°
2026-05-04 20:25 51.12878 2.03866 26562 ft 470 kts 96°
2026-05-04 20:25 51.12604 2.09059 26866 ft 472 kts 96°
2026-05-04 20:25 51.12331 2.14284 27153 ft 474 kts 96°
2026-05-04 20:25 51.12051 2.19512 27462 ft 475 kts 96°
2026-05-04 20:26 51.11767 2.24766 27729 ft 477 kts 97°
2026-05-04 20:26 51.11480 2.30034 28002 ft 479 kts 97°
2026-05-04 20:26 51.11187 2.35330 28282 ft 481 kts 97°
2026-05-04 20:26 51.10891 2.40623 28580 ft 481 kts 97°
2026-05-04 20:27 51.10589 2.45948 28851 ft 483 kts 97°
2026-05-04 20:27 51.10286 2.51268 29114 ft 485 kts 97°
2026-05-04 20:27 51.09980 2.56574 29375 ft 486 kts 97°
2026-05-04 20:27 51.09578 2.61909 29613 ft 486 kts 102°
2026-05-04 20:28 51.08902 2.67196 29878 ft 487 kts 104°
2026-05-04 20:28 51.08126 2.72456 30104 ft 488 kts 105°
2026-05-04 20:28 51.07311 2.77704 30294 ft 490 kts 106°
2026-05-04 20:28 51.06473 2.82965 30511 ft 492 kts 106°
2026-05-04 20:29 51.05617 2.88231 30718 ft 493 kts 106°
2026-05-04 20:29 51.04750 2.93503 30931 ft 493 kts 106°
2026-05-04 20:29 51.03877 2.98779 31170 ft 494 kts 106°
2026-05-04 20:29 51.03001 3.04055 31424 ft 494 kts 106°
2026-05-04 20:30 51.02120 3.09331 31679 ft 494 kts 107°
2026-05-04 20:30 51.01235 3.14605 31923 ft 494 kts 107°
2026-05-04 20:30 51.00348 3.19882 32183 ft 494 kts 107°
2026-05-04 20:30 50.99457 3.25157 32424 ft 495 kts 107°
2026-05-04 20:31 50.98563 3.30428 32663 ft 495 kts 107°
2026-05-04 20:31 50.97668 3.35704 32893 ft 495 kts 107°
2026-05-04 20:31 50.96769 3.40986 33142 ft 496 kts 107°
2026-05-04 20:31 50.95867 3.46264 33393 ft 496 kts 107°
2026-05-04 20:32 50.94962 3.51540 33647 ft 496 kts 108°
2026-05-04 20:32 50.94066 3.56740 33904 ft 496 kts 108°
2026-05-04 20:32 50.93154 3.62023 34118 ft 496 kts 108°
2026-05-04 20:32 50.92238 3.67296 34338 ft 496 kts 108°
2026-05-04 20:33 50.91321 3.72562 34551 ft 496 kts 108°
2026-05-04 20:33 50.90400 3.77834 34738 ft 495 kts 108°
2026-05-04 20:33 50.89485 3.83098 34865 ft 496 kts 108°
2026-05-04 20:33 50.88560 3.88377 34917 ft 500 kts 108°
2026-05-04 20:34 50.86668 3.99075 34958 ft 508 kts 109°
2026-05-04 20:34 50.84738 4.09918 34959 ft 516 kts 109°
2026-05-04 20:35 50.82768 4.20922 34975 ft 523 kts 109°
2026-05-04 20:35 50.80768 4.32038 34969 ft 525 kts 109°
2026-05-04 20:36 50.78762 4.43133 34965 ft 525 kts 109°
2026-05-04 20:36 50.76745 4.54226 34965 ft 525 kts 109°
2026-05-04 20:37 50.74729 4.65232 34964 ft 525 kts 109°
2026-05-04 20:37 50.72695 4.76313 34956 ft 525 kts 109°
2026-05-04 20:38 50.70648 4.87362 34954 ft 525 kts 109°
2026-05-04 20:38 50.68591 4.98386 34959 ft 525 kts 110°
2026-05-04 20:39 50.66517 5.09433 34963 ft 525 kts 110°
2026-05-04 20:39 50.64453 5.20409 34954 ft 525 kts 110°
2026-05-04 20:40 50.62365 5.31428 34956 ft 525 kts 110°
2026-05-04 20:40 50.60261 5.42433 34961 ft 525 kts 110°
2026-05-04 20:41 50.58509 5.51546 34960 ft 525 kts 110°
2026-05-04 20:41 50.56383 5.62563 34955 ft 525 kts 111°
2026-05-04 20:42 50.54255 5.73543 34962 ft 525 kts 111°
2026-05-04 20:42 50.52106 5.84529 34957 ft 525 kts 111°
2026-05-04 20:43 50.49949 5.95488 34959 ft 525 kts 111°
2026-05-04 20:43 50.47789 6.06426 34947 ft 524 kts 112°
2026-05-04 20:44 50.45617 6.17359 34958 ft 524 kts 112°
2026-05-04 20:44 50.43443 6.28202 34960 ft 524 kts 112°
2026-05-04 20:45 50.41730 6.39365 34958 ft 530 kts 103°
2026-05-04 20:45 50.40700 6.50831 34947 ft 533 kts 102°
2026-05-04 20:46 50.39769 6.62385 34953 ft 535 kts 101°
2026-05-04 20:46 50.38862 6.73973 34968 ft 535 kts 101°
2026-05-04 20:47 50.37953 6.85536 34986 ft 535 kts 101°
2026-05-04 20:47 50.37031 6.97098 34978 ft 535 kts 101°
2026-05-04 20:48 50.36094 7.08675 34993 ft 535 kts 101°
2026-05-04 20:48 50.35145 7.20244 34996 ft 535 kts 101°
2026-05-04 20:49 50.34185 7.31801 34984 ft 535 kts 102°